WESTFORD NEEDLES, 19891

Orbit data source: Space-Track

WESTFORD NEEDLES, 19891 is space debris in LEO originally from a launch on Thu, 09 May 1963 UTC launched from the Air Force Western Test Range (AFWTR). Debris objects in space refer to the collection of defunct objects orbiting the Earth. Examples of debris include non-operational satellites, rocket bodies, and fragments generated from explosions, collisions, or faulty payload assembly.

Loading next visibility...
Identifier
19891, 1963-014ET
Orbit
LEO
Country
Flag of USUS
Related business
Manufacturer
Unknown
Mission
Spacecraft
Bus & Motor
Unknown
Mass
Unknown
Launch date (UTC)
1963-05-09 (63 years ago)
Launch vehicle
Unknown
Launch site
Air Force Western Test Range (AFWTR)
Object type
Payload
Rocket body
Debris
Shape & HBR
Unknown shape, 0.2 m
Radar Cross Section
Medium (>0.1 m² and <1 m²)

Expand to show TLE details & history
Last TLE update: 1 month ago

TLE from 1 month ago
0 WESTFORD NEEDLES
1 19891U 63014ET  25315.57169541 -.00000064  00000-0 -29817-1 0  9996
2 19891  87.3036 176.4430 0304902 139.2385 249.5856  8.66880171371107
Epoch: 2025-11-11T13:43Z
TLE epoch observation values (Epoch: 2025-11-11T13:43:14.483Z)
Latitude
25.58376°
Longitude
-79.03668°
Altitude
3,748.796 km
Speed
6.24 km/s
True Right ascension
11h 50m 55s
True Declination
25° 29' 22"
Sunlit
Object was in daylight at epoch
Visualization orbit readout
Latitude
Unknown
Longitude
Unknown
Altitude
Unknown
Speed
Unknown
Apparent Right ascension
Unknown
Apparent Declination
Unknown
Sunlit
N/A
Visualization observer readout
Local Sidereal Time
07:33:28
Azimuth
Unknown
Elevation
Unknown
Doppler factor
Unknown
Orbital elements
Apogee altitude
3,934.704 km
Perigee altitude
3,324.43 km
Semi-major axis
10,007.704 km
Eccentricity
0.03049
Inclination
87.3036°
RAAN
176.443°
Arg. of periapsis
139.2385°
True anomaly
246.35581°
Mean anomaly
249.5856°
Eccentric anomaly
247.96623°
Mean motion
2.16791 °/min
Orbital period
166.06 mins
BSTAR
-0.029817

Documentation

Showing up to 5 results
|